Time,TemperatureF,DewpointF,PressureIn,WindDirection,WindDirectionDegrees,WindSpeedMPH,WindSpeedGustMPH,Humidity,HourlyPrecipIn,Conditions,Clouds,dailyrainin,SoftwareType,DateUTC
2013-02-15 00:02:00,24.0,21.0,-100.00,ENE,60,10.0,21.0,89,-99.99,,,-99.99,,2013-02-15 05:02:00,
2013-02-15 00:12:00,24.0,21.0,-100.00,ENE,60,10.0,21.0,89,-99.99,,,-99.99,,2013-02-15 05:12:00,
2013-02-15 00:22:00,24.0,21.0,-100.00,ENE,75,9.0,20.0,88,-99.99,,,-99.99,,2013-02-15 05:22:00,
2013-02-15 00:32:00,24.0,21.0,-100.00,NE,40,6.0,21.0,88,-99.99,,,-99.99,,2013-02-15 05:32:00,
2013-02-15 00:42:00,24.0,21.0,-100.00,NE,40,6.0,21.0,88,-99.99,,,-99.99,,2013-02-15 05:42:00,
2013-02-15 00:52:00,24.0,21.0,-100.00,ESE,105,8.0,18.0,88,-99.99,,,-99.99,,2013-02-15 05:52:00,
2013-02-15 01:02:00,24.0,21.0,-100.00,ESE,105,5.0,14.0,88,-99.99,,,-99.99,,2013-02-15 06:02:00,
2013-02-15 01:11:00,24.0,21.0,-100.00,ESE,105,5.0,14.0,88,-99.99,,,-99.99,,2013-02-15 06:11:00,
2013-02-15 01:22:00,23.0,19.0,-100.00,East,85,6.0,18.0,85,-99.99,,,-99.99,,2013-02-15 06:22:00,
2013-02-15 01:32:00,23.0,18.0,-100.00,East,95,9.0,18.0,83,-99.99,,,-99.99,,2013-02-15 06:32:00,
2013-02-15 01:42:00,23.0,18.0,-100.00,East,95,9.0,18.0,83,-99.99,,,-99.99,,2013-02-15 06:42:00,
2013-02-15 01:52:00,23.0,18.0,-100.00,East,95,4.0,11.0,83,-99.99,,,-99.99,,2013-02-15 06:52:00,
2013-02-15 02:01:00,23.0,19.0,-100.00,ENE,70,5.0,14.0,84,-99.99,,,-99.99,,2013-02-15 07:01:00,
2013-02-15 02:11:00,23.0,19.0,-100.00,ENE,70,5.0,14.0,84,-99.99,,,-99.99,,2013-02-15 07:11:00,
2013-02-15 02:21:00,22.0,18.0,-100.00,ENE,70,9.0,19.0,84,-99.99,,,-99.99,,2013-02-15 07:21:00,
2013-02-15 02:32:00,21.0,17.0,-100.00,ENE,60,4.0,19.0,84,-99.99,,,-99.99,,2013-02-15 07:32:00,
2013-02-15 02:42:00,21.0,17.0,-100.00,ENE,60,4.0,19.0,84,-99.99,,,-99.99,,2013-02-15 07:42:00,
2013-02-15 02:52:00,21.0,16.0,-100.00,ESE,110,8.0,24.0,81,-99.99,,,-99.99,,2013-02-15 07:52:00,
2013-02-15 03:01:00,20.0,14.0,-100.00,ESE,105,10.0,24.0,76,-99.99,,,-99.99,,2013-02-15 08:01:00,
2013-02-15 03:11:00,20.0,14.0,-100.00,ESE,105,10.0,24.0,76,-99.99,,,-99.99,,2013-02-15 08:11:00,
2013-02-15 03:21:00,20.0,13.0,-100.00,East,95,6.0,18.0,75,-99.99,,,-99.99,,2013-02-15 08:21:00,
2013-02-15 03:32:00,19.0,13.0,-100.00,East,80,6.0,13.0,76,-99.99,,,-99.99,,2013-02-15 08:32:00,
2013-02-15 03:42:00,19.0,13.0,-100.00,East,80,6.0,13.0,76,-99.99,,,-99.99,,2013-02-15 08:42:00,
2013-02-15 03:52:00,19.0,13.0,-100.00,ENE,75,7.0,13.0,76,-99.99,,,-99.99,,2013-02-15 08:52:00,
2013-02-15 04:02:00,19.0,13.0,-100.00,ENE,75,7.0,13.0,76,-99.99,,,-99.99,,2013-02-15 09:02:00,
2013-02-15 04:22:00,19.0,12.0,-100.00,ENE,65,5.0,15.0,75,-99.99,,,-99.99,,2013-02-15 09:22:00,
2013-02-15 04:32:00,19.0,12.0,-100.00,ENE,75,4.0,14.0,76,-99.99,,,-99.99,,2013-02-15 09:32:00,
2013-02-15 04:42:00,19.0,12.0,-100.00,ENE,75,4.0,14.0,76,-99.99,,,-99.99,,2013-02-15 09:42:00,
2013-02-15 04:52:00,19.0,13.0,-100.00,NE,50,7.0,17.0,77,-99.99,,,-99.99,,2013-02-15 09:52:00,
2013-02-15 05:02:00,19.0,14.0,-100.00,ENE,70,6.0,14.0,81,-99.99,,,-99.99,,2013-02-15 10:02:00,
2013-02-15 05:11:00,19.0,14.0,-100.00,ENE,70,6.0,14.0,81,-99.99,,,-99.99,,2013-02-15 10:11:00,
2013-02-15 05:21:00,19.0,14.0,-100.00,NE,55,11.0,21.0,81,-99.99,,,-99.99,,2013-02-15 10:21:00,
2013-02-15 05:32:00,18.0,14.0,-100.00,ENE,70,11.0,26.0,82,-99.99,,,-99.99,,2013-02-15 10:32:00,
2013-02-15 05:42:00,18.0,14.0,-100.00,ENE,70,11.0,26.0,82,-99.99,,,-99.99,,2013-02-15 10:42:00,
2013-02-15 05:52:00,18.0,13.0,-100.00,East,90,12.0,24.0,81,-99.99,,,-99.99,,2013-02-15 10:52:00,
2013-02-15 06:01:00,18.0,13.0,-100.00,NE,50,7.0,14.0,81,-99.99,,,-99.99,,2013-02-15 11:01:00,
2013-02-15 06:11:00,18.0,13.0,-100.00,NE,50,7.0,14.0,81,-99.99,,,-99.99,,2013-02-15 11:11:00,
2013-02-15 06:23:00,18.0,13.0,-100.00,NE,55,9.0,19.0,82,-99.99,,,-99.99,,2013-02-15 11:23:00,
2013-02-15 06:32:00,17.0,13.0,-100.00,East,90,6.0,16.0,83,-99.99,,,-99.99,,2013-02-15 11:32:00,
2013-02-15 06:42:00,17.0,13.0,-100.00,East,90,6.0,16.0,83,-99.99,,,-99.99,,2013-02-15 11:42:00,
2013-02-15 06:52:00,17.0,13.0,-100.00,ENE,65,6.0,20.0,81,-99.99,,,-99.99,,2013-02-15 11:52:00,
2013-02-15 07:02:00,17.0,11.0,-100.00,ENE,60,9.0,19.0,78,-99.99,,,-99.99,,2013-02-15 12:02:00,
2013-02-15 07:11:00,17.0,11.0,-100.00,ENE,60,9.0,19.0,78,-99.99,,,-99.99,,2013-02-15 12:11:00,
2013-02-15 07:22:00,16.0,11.0,-100.00,East,80,6.0,15.0,79,-99.99,,,-99.99,,2013-02-15 12:22:00,
2013-02-15 07:32:00,16.0,11.0,-100.00,ENE,60,7.0,17.0,78,-99.99,,,-99.99,,2013-02-15 12:32:00,
2013-02-15 07:42:00,16.0,11.0,-100.00,ENE,60,7.0,17.0,78,-99.99,,,-99.99,,2013-02-15 12:42:00,
2013-02-15 07:52:00,16.0,10.0,-100.00,NE,45,3.0,14.0,78,-99.99,,,-99.99,,2013-02-15 12:52:00,
2013-02-15 08:02:00,16.0,10.0,-100.00,East,90,3.0,13.0,79,-99.99,,,-99.99,,2013-02-15 13:02:00,
2013-02-15 08:11:00,16.0,10.0,-100.00,East,90,3.0,13.0,79,-99.99,,,-99.99,,2013-02-15 13:11:00,
2013-02-15 08:22:00,16.0,10.0,-100.00,East,80,4.0,16.0,78,-99.99,,,-99.99,,2013-02-15 13:22:00,
2013-02-15 08:32:00,15.0,10.0,-100.00,ENE,65,4.0,11.0,79,-99.99,,,-99.99,,2013-02-15 13:32:00,
2013-02-15 08:42:00,15.0,10.0,-100.00,ENE,65,4.0,11.0,79,-99.99,,,-99.99,,2013-02-15 13:42:00,
2013-02-15 08:52:00,15.0,10.0,-100.00,East,85,4.0,11.0,79,-99.99,,,-99.99,,2013-02-15 13:52:00,
2013-02-15 09:01:00,16.0,10.0,-100.00,ESE,110,6.0,14.0,78,-99.99,,,-99.99,,2013-02-15 14:01:00,
2013-02-15 09:12:00,16.0,10.0,-100.00,ESE,110,6.0,14.0,78,-99.99,,,-99.99,,2013-02-15 14:12:00,
2013-02-15 09:22:00,16.0,10.0,-100.00,ESE,115,7.0,14.0,75,-99.99,,,-99.99,,2013-02-15 14:22:00,
2013-02-15 09:32:00,18.0,11.0,-100.00,ENE,65,3.0,14.0,73,-99.99,,,-99.99,,2013-02-15 14:32:00,
2013-02-15 09:42:00,18.0,11.0,-100.00,ENE,65,3.0,14.0,73,-99.99,,,-99.99,,2013-02-15 14:42:00,
2013-02-15 09:52:00,17.0,10.0,-100.00,East,80,4.0,11.0,73,-99.99,,,-99.99,,2013-02-15 14:52:00,
2013-02-15 10:02:00,18.0,10.0,-100.00,ENE,70,3.0,13.0,72,-99.99,,,-99.99,,2013-02-15 15:02:00,
2013-02-15 10:11:00,18.0,10.0,-100.00,ENE,70,3.0,13.0,72,-99.99,,,-99.99,,2013-02-15 15:11:00,
2013-02-15 10:22:00,18.0,11.0,-100.00,ENE,60,7.0,14.0,71,-99.99,,,-99.99,,2013-02-15 15:22:00,
2013-02-15 10:32:00,18.0,10.0,-100.00,NE,55,6.0,13.0,71,-99.99,,,-99.99,,2013-02-15 15:32:00,
2013-02-15 10:42:00,18.0,10.0,-100.00,NE,55,6.0,13.0,71,-99.99,,,-99.99,,2013-02-15 15:42:00,
2013-02-15 10:52:00,19.0,11.0,-100.00,NE,40,6.0,11.0,70,-99.99,,,-99.99,,2013-02-15 15:52:00,
2013-02-15 11:02:00,19.0,10.0,-100.00,NE,55,4.0,14.0,67,-99.99,,,-99.99,,2013-02-15 16:02:00,
2013-02-15 11:12:00,19.0,10.0,-100.00,NE,55,4.0,14.0,67,-99.99,,,-99.99,,2013-02-15 16:12:00,
2013-02-15 11:22:00,19.0,10.0,-100.00,NE,55,6.0,16.0,68,-99.99,,,-99.99,,2013-02-15 16:22:00,
2013-02-15 11:32:00,19.0,10.0,-100.00,ENE,70,6.0,13.0,68,-99.99,,,-99.99,,2013-02-15 16:32:00,
2013-02-15 11:42:00,19.0,10.0,-100.00,ENE,70,6.0,13.0,68,-99.99,,,-99.99,,2013-02-15 16:42:00,
2013-02-15 11:52:00,20.0,12.0,-100.00,East,85,4.0,10.0,69,-99.99,,,-99.99,,2013-02-15 16:52:00,
2013-02-15 12:01:00,19.0,10.0,-100.00,ENE,70,11.0,23.0,69,-99.99,,,-99.99,,2013-02-15 17:01:00,
2013-02-15 12:11:00,19.0,10.0,-100.00,ENE,70,11.0,23.0,69,-99.99,,,-99.99,,2013-02-15 17:11:00,
2013-02-15 12:21:00,19.0,11.0,-100.00,NNE,30,6.0,11.0,70,-99.99,,,-99.99,,2013-02-15 17:21:00,
2013-02-15 12:32:00,18.0,12.0,-100.00,NE,35,9.0,14.0,75,-99.99,,,-99.99,,2013-02-15 17:32:00,
2013-02-15 12:42:00,18.0,12.0,-100.00,NE,35,9.0,14.0,75,-99.99,,,-99.99,,2013-02-15 17:42:00,
2013-02-15 12:52:00,19.0,13.0,-100.00,NNE,15,8.0,14.0,76,-99.99,,,-99.99,,2013-02-15 17:52:00,
2013-02-15 13:02:00,19.0,13.0,-100.00,NNE,15,6.0,11.0,76,-99.99,,,-99.99,,2013-02-15 18:02:00,
2013-02-15 13:12:00,19.0,13.0,-100.00,NNE,15,6.0,11.0,76,-99.99,,,-99.99,,2013-02-15 18:12:00,
2013-02-15 13:22:00,20.0,13.0,-100.00,NE,40,4.0,14.0,75,-99.99,,,-99.99,,2013-02-15 18:22:00,
2013-02-15 13:32:00,20.0,12.0,-100.00,NE,45,5.0,14.0,71,-99.99,,,-99.99,,2013-02-15 18:32:00,
2013-02-15 13:42:00,20.0,12.0,-100.00,NE,45,5.0,14.0,71,-99.99,,,-99.99,,2013-02-15 18:42:00,
2013-02-15 13:52:00,20.0,12.0,-100.00,NE,50,8.0,14.0,71,-99.99,,,-99.99,,2013-02-15 18:52:00,
2013-02-15 14:02:00,20.0,12.0,-100.00,NE,55,6.0,10.0,70,-99.99,,,-99.99,,2013-02-15 19:02:00,
2013-02-15 14:11:00,20.0,12.0,-100.00,NE,55,6.0,10.0,70,-99.99,,,-99.99,,2013-02-15 19:11:00,
2013-02-15 14:22:00,21.0,12.0,-100.00,ENE,65,5.0,11.0,69,-99.99,,,-99.99,,2013-02-15 19:22:00,
2013-02-15 14:32:00,21.0,12.0,-100.00,NE,55,6.0,11.0,68,-99.99,,,-99.99,,2013-02-15 19:32:00,
2013-02-15 14:42:00,21.0,12.0,-100.00,NE,55,6.0,11.0,68,-99.99,,,-99.99,,2013-02-15 19:42:00,
2013-02-15 14:52:00,21.0,12.0,-100.00,NNE,20,5.0,10.0,68,-99.99,,,-99.99,,2013-02-15 19:52:00,
2013-02-15 15:02:00,20.0,12.0,-100.00,NE,50,7.0,13.0,68,-99.99,,,-99.99,,2013-02-15 20:02:00,
2013-02-15 15:11:00,20.0,12.0,-100.00,NE,50,7.0,13.0,68,-99.99,,,-99.99,,2013-02-15 20:11:00,
2013-02-15 15:22:00,20.0,13.0,-100.00,NE,45,8.0,13.0,72,-99.99,,,-99.99,,2013-02-15 20:22:00,
2013-02-15 15:32:00,21.0,14.0,-100.00,NE,55,4.0,11.0,75,-99.99,,,-99.99,,2013-02-15 20:32:00,
2013-02-15 15:42:00,21.0,14.0,-100.00,NE,55,4.0,11.0,75,-99.99,,,-99.99,,2013-02-15 20:42:00,
2013-02-15 15:52:00,21.0,14.0,-100.00,NE,50,6.0,11.0,73,-99.99,,,-99.99,,2013-02-15 20:52:00,
2013-02-15 16:02:00,21.0,13.0,-100.00,NE,45,4.0,11.0,70,-99.99,,,-99.99,,2013-02-15 21:02:00,
2013-02-15 16:11:00,21.0,13.0,-100.00,NE,45,4.0,11.0,70,-99.99,,,-99.99,,2013-02-15 21:11:00,
2013-02-15 16:22:00,20.0,13.0,-100.00,NNE,30,7.0,13.0,72,-99.99,,,-99.99,,2013-02-15 21:22:00,
2013-02-15 16:32:00,20.0,13.0,-100.00,NE,35,6.0,10.0,74,-99.99,,,-99.99,,2013-02-15 21:32:00,
2013-02-15 16:42:00,20.0,13.0,-100.00,NE,35,6.0,10.0,74,-99.99,,,-99.99,,2013-02-15 21:42:00,
2013-02-15 16:52:00,21.0,14.0,-100.00,NE,45,5.0,11.0,74,-99.99,,,-99.99,,2013-02-15 21:52:00,
2013-02-15 17:02:00,20.0,14.0,-100.00,NNE,20,4.0,14.0,76,-99.99,,,-99.99,,2013-02-15 22:02:00,
2013-02-15 17:11:00,20.0,14.0,-100.00,NNE,20,4.0,14.0,76,-99.99,,,-99.99,,2013-02-15 22:11:00,
2013-02-15 17:22:00,20.0,14.0,-100.00,NNE,30,5.0,11.0,79,-99.99,,,-99.99,,2013-02-15 22:22:00,
2013-02-15 17:32:00,19.0,15.0,-100.00,NNE,25,8.0,14.0,83,-99.99,,,-99.99,,2013-02-15 22:32:00,
2013-02-15 17:42:00,19.0,15.0,-100.00,NNE,25,8.0,14.0,83,-99.99,,,-99.99,,2013-02-15 22:42:00,
2013-02-15 17:52:00,19.0,15.0,-100.00,NE,40,5.0,13.0,84,-99.99,,,-99.99,,2013-02-15 22:52:00,
2013-02-15 18:02:00,19.0,15.0,-100.00,NE,40,4.0,13.0,84,-99.99,,,-99.99,,2013-02-15 23:02:00,
2013-02-15 18:11:00,19.0,15.0,-100.00,NE,40,4.0,13.0,84,-99.99,,,-99.99,,2013-02-15 23:11:00,
2013-02-15 18:21:00,19.0,14.0,-100.00,NE,55,9.0,15.0,80,-99.99,,,-99.99,,2013-02-15 23:21:00,
2013-02-15 18:32:00,19.0,15.0,-100.00,ENE,60,10.0,13.0,84,-99.99,,,-99.99,,2013-02-15 23:32:00,
2013-02-15 18:42:00,19.0,15.0,-100.00,ENE,60,10.0,13.0,84,-99.99,,,-99.99,,2013-02-15 23:42:00,
2013-02-15 18:52:00,18.0,15.0,-100.00,NE,40,9.0,23.0,88,-99.99,,,-99.99,,2013-02-15 23:52:00,
2013-02-15 19:02:00,18.0,15.0,-100.00,ENE,60,13.0,21.0,89,-99.99,,,-99.99,,2013-02-16 00:02:00,
2013-02-15 19:11:00,18.0,15.0,-100.00,ENE,60,13.0,21.0,89,-99.99,,,-99.99,,2013-02-16 00:11:00,
2013-02-15 19:22:00,18.0,15.0,-100.00,NE,45,8.0,16.0,89,-99.99,,,-99.99,,2013-02-16 00:22:00,
2013-02-15 19:32:00,17.0,14.0,-100.00,NE,45,11.0,24.0,87,-99.99,,,-99.99,,2013-02-16 00:32:00,
2013-02-15 19:42:00,17.0,14.0,-100.00,NE,45,11.0,24.0,87,-99.99,,,-99.99,,2013-02-16 00:42:00,
2013-02-15 19:52:00,17.0,13.0,-100.00,ENE,75,9.0,24.0,85,-99.99,,,-99.99,,2013-02-16 00:52:00,
2013-02-15 20:02:00,17.0,11.0,-100.00,NE,55,10.0,20.0,78,-99.99,,,-99.99,,2013-02-16 01:02:00,
2013-02-15 20:11:00,17.0,11.0,-100.00,NE,55,10.0,20.0,78,-99.99,,,-99.99,,2013-02-16 01:11:00,
2013-02-15 20:21:00,17.0,9.0,-100.00,ENE,75,8.0,23.0,69,-99.99,,,-99.99,,2013-02-16 01:21:00,
2013-02-15 20:32:00,17.0,7.0,-100.00,ENE,65,7.0,20.0,64,-99.99,,,-99.99,,2013-02-16 01:32:00,
2013-02-15 20:42:00,17.0,7.0,-100.00,ENE,65,7.0,20.0,64,-99.99,,,-99.99,,2013-02-16 01:42:00,
2013-02-15 20:52:00,17.0,8.0,-100.00,East,90,5.0,14.0,68,-99.99,,,-99.99,,2013-02-16 01:52:00,
2013-02-15 21:01:00,17.0,7.0,-100.00,NE,50,6.0,14.0,67,-99.99,,,-99.99,,2013-02-16 02:01:00,
2013-02-15 21:11:00,17.0,7.0,-100.00,NE,50,6.0,14.0,67,-99.99,,,-99.99,,2013-02-16 02:11:00,
2013-02-15 21:22:00,16.0,7.0,-100.00,East,80,4.0,11.0,67,-99.99,,,-99.99,,2013-02-16 02:22:00,
2013-02-15 21:32:00,16.0,7.0,-100.00,NE,45,4.0,12.0,65,-99.99,,,-99.99,,2013-02-16 02:32:00,
2013-02-15 21:42:00,16.0,7.0,-100.00,NE,45,4.0,12.0,65,-99.99,,,-99.99,,2013-02-16 02:42:00,
2013-02-15 21:52:00,16.0,6.0,-100.00,East,90,4.0,11.0,65,-99.99,,,-99.99,,2013-02-16 02:52:00,
2013-02-15 22:02:00,16.0,6.0,-100.00,East,100,4.0,11.0,65,-99.99,,,-99.99,,2013-02-16 03:02:00,
2013-02-15 22:11:00,16.0,6.0,-100.00,East,100,4.0,11.0,65,-99.99,,,-99.99,,2013-02-16 03:11:00,
2013-02-15 22:21:00,15.0,5.0,-100.00,ENE,65,7.0,19.0,62,-99.99,,,-99.99,,2013-02-16 03:21:00,
2013-02-15 22:32:00,15.0,5.0,-100.00,East,80,5.0,17.0,63,-99.99,,,-99.99,,2013-02-16 03:32:00,
2013-02-15 22:42:00,15.0,5.0,-100.00,East,80,5.0,17.0,63,-99.99,,,-99.99,,2013-02-16 03:42:00,
2013-02-15 22:52:00,15.0,5.0,-100.00,ENE,70,6.0,10.0,63,-99.99,,,-99.99,,2013-02-16 03:52:00,
2013-02-15 23:01:00,15.0,4.0,-100.00,NE,35,5.0,10.0,61,-99.99,,,-99.99,,2013-02-16 04:01:00,
2013-02-15 23:11:00,15.0,4.0,-100.00,NE,35,5.0,10.0,61,-99.99,,,-99.99,,2013-02-16 04:11:00,
2013-02-15 23:21:00,15.0,6.0,-100.00,NNE,25,4.0,9.0,66,-99.99,,,-99.99,,2013-02-16 04:21:00,
2013-02-15 23:32:00,15.0,6.0,-100.00,NNE,30,4.0,11.0,68,-99.99,,,-99.99,,2013-02-16 04:32:00,
2013-02-15 23:42:00,15.0,6.0,-100.00,NNE,30,4.0,11.0,68,-99.99,,,-99.99,,2013-02-16 04:42:00,
2013-02-15 23:52:00,14.0,6.0,-100.00,North,0,3.0,7.0,70,-99.99,,,-99.99,,2013-02-16 04:52:00,